Index of /20260415/WXO-DD/model_gdps/15km/12/099
Name Last modified Size Description
Parent Directory -
20260415T12Z_MSC_GDPS_AbsoluteVorticity_IsbL-0200_LatLon0.15_PT099H.grib2 2026-04-15 16:25 1.5M
20260415T12Z_MSC_GDPS_AbsoluteVorticity_IsbL-0250_LatLon0.15_PT099H.grib2 2026-04-15 16:25 1.3M
20260415T12Z_MSC_GDPS_AbsoluteVorticity_IsbL-0500_LatLon0.15_PT099H.grib2 2026-04-15 16:25 1.4M
20260415T12Z_MSC_GDPS_AbsoluteVorticity_IsbL-0700_LatLon0.15_PT099H.grib2 2026-04-15 16:25 1.3M
20260415T12Z_MSC_GDPS_AbsoluteVorticity_IsbL-0850_LatLon0.15_PT099H.grib2 2026-04-15 16:25 1.6M
20260415T12Z_MSC_GDPS_AirTemp_AGL-120m_LatLon0.15_PT099H.grib2 2026-04-15 16:25 913K
20260415T12Z_MSC_GDPS_AirTemp_AGL-2m_LatLon0.15_PT099H.grib2 2026-04-15 16:25 1.0M
20260415T12Z_MSC_GDPS_AirTemp_AGL-40m_LatLon0.15_PT099H.grib2 2026-04-15 16:25 932K
20260415T12Z_MSC_GDPS_AirTemp_AGL-80m_LatLon0.15_PT099H.grib2 2026-04-15 16:25 921K
20260415T12Z_MSC_GDPS_AirTemp_IsbL-0001_LatLon0.15_PT099H.grib2 2026-04-15 16:25 706K
20260415T12Z_MSC_GDPS_AirTemp_IsbL-0005_LatLon0.15_PT099H.grib2 2026-04-15 16:25 686K
20260415T12Z_MSC_GDPS_AirTemp_IsbL-0010_LatLon0.15_PT099H.grib2 2026-04-15 16:25 757K
20260415T12Z_MSC_GDPS_AirTemp_IsbL-0020_LatLon0.15_PT099H.grib2 2026-04-15 16:25 696K
20260415T12Z_MSC_GDPS_AirTemp_IsbL-0030_LatLon0.15_PT099H.grib2 2026-04-15 16:25 749K
20260415T12Z_MSC_GDPS_AirTemp_IsbL-0050_LatLon0.15_PT099H.grib2 2026-04-15 16:25 816K
20260415T12Z_MSC_GDPS_AirTemp_IsbL-0100_LatLon0.15_PT099H.grib2 2026-04-15 16:25 956K
20260415T12Z_MSC_GDPS_AirTemp_IsbL-0150_LatLon0.15_PT099H.grib2 2026-04-15 16:25 1.0M
20260415T12Z_MSC_GDPS_AirTemp_IsbL-0175_LatLon0.15_PT099H.grib2 2026-04-15 16:25 969K
20260415T12Z_MSC_GDPS_AirTemp_IsbL-0200_LatLon0.15_PT099H.grib2 2026-04-15 16:25 1.0M
20260415T12Z_MSC_GDPS_AirTemp_IsbL-0225_LatLon0.15_PT099H.grib2 2026-04-15 16:25 1.0M
20260415T12Z_MSC_GDPS_AirTemp_IsbL-0250_LatLon0.15_PT099H.grib2 2026-04-15 16:25 1.0M
20260415T12Z_MSC_GDPS_AirTemp_IsbL-0275_LatLon0.15_PT099H.grib2 2026-04-15 16:25 1.0M
20260415T12Z_MSC_GDPS_AirTemp_IsbL-0300_LatLon0.15_PT099H.grib2 2026-04-15 16:25 1.0M
20260415T12Z_MSC_GDPS_AirTemp_IsbL-0350_LatLon0.15_PT099H.grib2 2026-04-15 16:25 926K
20260415T12Z_MSC_GDPS_AirTemp_IsbL-0400_LatLon0.15_PT099H.grib2 2026-04-15 16:25 939K
20260415T12Z_MSC_GDPS_AirTemp_IsbL-0450_LatLon0.15_PT099H.grib2 2026-04-15 16:25 964K
20260415T12Z_MSC_GDPS_AirTemp_IsbL-0500_LatLon0.15_PT099H.grib2 2026-04-15 16:25 1.0M
20260415T12Z_MSC_GDPS_AirTemp_IsbL-0550_LatLon0.15_PT099H.grib2 2026-04-15 16:25 1.0M
20260415T12Z_MSC_GDPS_AirTemp_IsbL-0600_LatLon0.15_PT099H.grib2 2026-04-15 16:25 903K
20260415T12Z_MSC_GDPS_AirTemp_IsbL-0650_LatLon0.15_PT099H.grib2 2026-04-15 16:25 934K
20260415T12Z_MSC_GDPS_AirTemp_IsbL-0700_LatLon0.15_PT099H.grib2 2026-04-15 16:25 962K
20260415T12Z_MSC_GDPS_AirTemp_IsbL-0750_LatLon0.15_PT099H.grib2 2026-04-15 16:25 1.0M
20260415T12Z_MSC_GDPS_AirTemp_IsbL-0800_LatLon0.15_PT099H.grib2 2026-04-15 16:25 1.1M
20260415T12Z_MSC_GDPS_AirTemp_IsbL-0850_LatLon0.15_PT099H.grib2 2026-04-15 16:25 1.1M
20260415T12Z_MSC_GDPS_AirTemp_IsbL-0875_LatLon0.15_PT099H.grib2 2026-04-15 16:25 1.1M
20260415T12Z_MSC_GDPS_AirTemp_IsbL-0900_LatLon0.15_PT099H.grib2 2026-04-15 16:25 1.1M
20260415T12Z_MSC_GDPS_AirTemp_IsbL-0925_LatLon0.15_PT099H.grib2 2026-04-15 16:25 1.1M
20260415T12Z_MSC_GDPS_AirTemp_IsbL-0950_LatLon0.15_PT099H.grib2 2026-04-15 16:25 1.1M
20260415T12Z_MSC_GDPS_AirTemp_IsbL-0970_LatLon0.15_PT099H.grib2 2026-04-15 16:25 1.1M
20260415T12Z_MSC_GDPS_AirTemp_IsbL-0985_LatLon0.15_PT099H.grib2 2026-04-15 16:25 1.1M
20260415T12Z_MSC_GDPS_AirTemp_IsbL-1000_LatLon0.15_PT099H.grib2 2026-04-15 16:25 1.1M
20260415T12Z_MSC_GDPS_AirTemp_IsbL-1015_LatLon0.15_PT099H.grib2 2026-04-15 16:25 1.1M
20260415T12Z_MSC_GDPS_Albedo_Sfc_LatLon0.15_PT099H.grib2 2026-04-15 16:25 245K
20260415T12Z_MSC_GDPS_CAPE_Sfc_LatLon0.15_PT099H.grib2 2026-04-15 16:25 3.7M
20260415T12Z_MSC_GDPS_CIN_Sfc_LatLon0.15_PT099H.grib2 2026-04-15 16:25 2.9M
20260415T12Z_MSC_GDPS_CloudWater_EAtm_LatLon0.15_PT099H.grib2 2026-04-15 16:25 535K
20260415T12Z_MSC_GDPS_ConvectivePrecip-Accum_Sfc_LatLon0.15_PT099H.grib2 2026-04-15 16:25 3.3M
20260415T12Z_MSC_GDPS_DewPointDepression_AGL-2m_LatLon0.15_PT099H.grib2 2026-04-15 16:25 752K
20260415T12Z_MSC_GDPS_DewPointDepression_IsbL-0010_LatLon0.15_PT099H.grib2 2026-04-15 16:25 5.9K
20260415T12Z_MSC_GDPS_DewPointDepression_IsbL-0020_LatLon0.15_PT099H.grib2 2026-04-15 16:25 81K
20260415T12Z_MSC_GDPS_DewPointDepression_IsbL-0030_LatLon0.15_PT099H.grib2 2026-04-15 16:25 70K
20260415T12Z_MSC_GDPS_DewPointDepression_IsbL-0050_LatLon0.15_PT099H.grib2 2026-04-15 16:25 358K
20260415T12Z_MSC_GDPS_DewPointDepression_IsbL-0100_LatLon0.15_PT099H.grib2 2026-04-15 16:25 379K
20260415T12Z_MSC_GDPS_DewPointDepression_IsbL-0150_LatLon0.15_PT099H.grib2 2026-04-15 16:25 463K
20260415T12Z_MSC_GDPS_DewPointDepression_IsbL-0175_LatLon0.15_PT099H.grib2 2026-04-15 16:25 545K
20260415T12Z_MSC_GDPS_DewPointDepression_IsbL-0200_LatLon0.15_PT099H.grib2 2026-04-15 16:25 617K
20260415T12Z_MSC_GDPS_DewPointDepression_IsbL-0225_LatLon0.15_PT099H.grib2 2026-04-15 16:25 749K
20260415T12Z_MSC_GDPS_DewPointDepression_IsbL-0250_LatLon0.15_PT099H.grib2 2026-04-15 16:25 869K
20260415T12Z_MSC_GDPS_DewPointDepression_IsbL-0275_LatLon0.15_PT099H.grib2 2026-04-15 16:25 884K
20260415T12Z_MSC_GDPS_DewPointDepression_IsbL-0300_LatLon0.15_PT099H.grib2 2026-04-15 16:25 921K
20260415T12Z_MSC_GDPS_DewPointDepression_IsbL-0350_LatLon0.15_PT099H.grib2 2026-04-15 16:25 950K
20260415T12Z_MSC_GDPS_DewPointDepression_IsbL-0400_LatLon0.15_PT099H.grib2 2026-04-15 16:25 1.0M
20260415T12Z_MSC_GDPS_DewPointDepression_IsbL-0450_LatLon0.15_PT099H.grib2 2026-04-15 16:25 1.0M
20260415T12Z_MSC_GDPS_DewPointDepression_IsbL-0500_LatLon0.15_PT099H.grib2 2026-04-15 16:25 1.0M
20260415T12Z_MSC_GDPS_DewPointDepression_IsbL-0550_LatLon0.15_PT099H.grib2 2026-04-15 16:25 1.0M
20260415T12Z_MSC_GDPS_DewPointDepression_IsbL-0600_LatLon0.15_PT099H.grib2 2026-04-15 16:25 1.1M
20260415T12Z_MSC_GDPS_DewPointDepression_IsbL-0650_LatLon0.15_PT099H.grib2 2026-04-15 16:25 1.1M
20260415T12Z_MSC_GDPS_DewPointDepression_IsbL-0700_LatLon0.15_PT099H.grib2 2026-04-15 16:25 1.1M
20260415T12Z_MSC_GDPS_DewPointDepression_IsbL-0750_LatLon0.15_PT099H.grib2 2026-04-15 16:25 1.1M
20260415T12Z_MSC_GDPS_DewPointDepression_IsbL-0800_LatLon0.15_PT099H.grib2 2026-04-15 16:25 1.2M
20260415T12Z_MSC_GDPS_DewPointDepression_IsbL-0850_LatLon0.15_PT099H.grib2 2026-04-15 16:25 1.2M
20260415T12Z_MSC_GDPS_DewPointDepression_IsbL-0875_LatLon0.15_PT099H.grib2 2026-04-15 16:25 1.1M
20260415T12Z_MSC_GDPS_DewPointDepression_IsbL-0900_LatLon0.15_PT099H.grib2 2026-04-15 16:25 1.1M
20260415T12Z_MSC_GDPS_DewPointDepression_IsbL-0925_LatLon0.15_PT099H.grib2 2026-04-15 16:25 1.0M
20260415T12Z_MSC_GDPS_DewPointDepression_IsbL-0950_LatLon0.15_PT099H.grib2 2026-04-15 16:25 1.0M
20260415T12Z_MSC_GDPS_DewPointDepression_IsbL-0970_LatLon0.15_PT099H.grib2 2026-04-15 16:25 1.0M
20260415T12Z_MSC_GDPS_DewPointDepression_IsbL-0985_LatLon0.15_PT099H.grib2 2026-04-15 16:25 1.0M
20260415T12Z_MSC_GDPS_DewPointDepression_IsbL-1000_LatLon0.15_PT099H.grib2 2026-04-15 16:25 966K
20260415T12Z_MSC_GDPS_DewPointDepression_IsbL-1015_LatLon0.15_PT099H.grib2 2026-04-15 16:25 904K
20260415T12Z_MSC_GDPS_DewPoint_AGL-2m_LatLon0.15_PT099H.grib2 2026-04-15 16:25 616K
20260415T12Z_MSC_GDPS_DownwardLongwaveRadiationFlux-Accum_Sfc_LatLon0.15_PT099H.grib2 2026-04-15 16:25 726K
20260415T12Z_MSC_GDPS_DownwardShortwaveRadiationFlux-Accum_NTAtm_LatLon0.15_PT099H.grib2 2026-04-15 16:25 270K
20260415T12Z_MSC_GDPS_DownwardShortwaveRadiationFlux-Accum_Sfc_LatLon0.15_PT099H.grib2 2026-04-15 16:25 962K
20260415T12Z_MSC_GDPS_FreezingRain-Accum1h_Sfc_LatLon0.15_PT099H.grib2 2026-04-15 16:25 40K
20260415T12Z_MSC_GDPS_FreezingRain-Accum3h_Sfc_LatLon0.15_PT099H.grib2 2026-04-15 16:25 55K
20260415T12Z_MSC_GDPS_FreezingRain-Accum_Sfc_LatLon0.15_PT099H.grib2 2026-04-15 16:25 287K
20260415T12Z_MSC_GDPS_GeopotentialHeight_IsbL-0001_LatLon0.15_PT099H.grib2 2026-04-15 16:25 388K
20260415T12Z_MSC_GDPS_GeopotentialHeight_IsbL-0005_LatLon0.15_PT099H.grib2 2026-04-15 16:25 506K
20260415T12Z_MSC_GDPS_GeopotentialHeight_IsbL-0010_LatLon0.15_PT099H.grib2 2026-04-15 16:25 435K
20260415T12Z_MSC_GDPS_GeopotentialHeight_IsbL-0020_LatLon0.15_PT099H.grib2 2026-04-15 16:25 577K
20260415T12Z_MSC_GDPS_GeopotentialHeight_IsbL-0030_LatLon0.15_PT099H.grib2 2026-04-15 16:25 584K
20260415T12Z_MSC_GDPS_GeopotentialHeight_IsbL-0050_LatLon0.15_PT099H.grib2 2026-04-15 16:25 585K
20260415T12Z_MSC_GDPS_GeopotentialHeight_IsbL-0100_LatLon0.15_PT099H.grib2 2026-04-15 16:25 621K
20260415T12Z_MSC_GDPS_GeopotentialHeight_IsbL-0150_LatLon0.15_PT099H.grib2 2026-04-15 16:25 638K
20260415T12Z_MSC_GDPS_GeopotentialHeight_IsbL-0175_LatLon0.15_PT099H.grib2 2026-04-15 16:25 641K
20260415T12Z_MSC_GDPS_GeopotentialHeight_IsbL-0200_LatLon0.15_PT099H.grib2 2026-04-15 16:25 644K
20260415T12Z_MSC_GDPS_GeopotentialHeight_IsbL-0225_LatLon0.15_PT099H.grib2 2026-04-15 16:25 638K
20260415T12Z_MSC_GDPS_GeopotentialHeight_IsbL-0250_LatLon0.15_PT099H.grib2 2026-04-15 16:25 648K
20260415T12Z_MSC_GDPS_GeopotentialHeight_IsbL-0275_LatLon0.15_PT099H.grib2 2026-04-15 16:25 644K
20260415T12Z_MSC_GDPS_GeopotentialHeight_IsbL-0300_LatLon0.15_PT099H.grib2 2026-04-15 16:25 642K
20260415T12Z_MSC_GDPS_GeopotentialHeight_IsbL-0350_LatLon0.15_PT099H.grib2 2026-04-15 16:25 629K
20260415T12Z_MSC_GDPS_GeopotentialHeight_IsbL-0400_LatLon0.15_PT099H.grib2 2026-04-15 16:25 621K
20260415T12Z_MSC_GDPS_GeopotentialHeight_IsbL-0450_LatLon0.15_PT099H.grib2 2026-04-15 16:25 542K
20260415T12Z_MSC_GDPS_GeopotentialHeight_IsbL-0500_LatLon0.15_PT099H.grib2 2026-04-15 16:25 533K
20260415T12Z_MSC_GDPS_GeopotentialHeight_IsbL-0550_LatLon0.15_PT099H.grib2 2026-04-15 16:25 695K
20260415T12Z_MSC_GDPS_GeopotentialHeight_IsbL-0600_LatLon0.15_PT099H.grib2 2026-04-15 16:25 688K
20260415T12Z_MSC_GDPS_GeopotentialHeight_IsbL-0650_LatLon0.15_PT099H.grib2 2026-04-15 16:25 689K
20260415T12Z_MSC_GDPS_GeopotentialHeight_IsbL-0700_LatLon0.15_PT099H.grib2 2026-04-15 16:25 689K
20260415T12Z_MSC_GDPS_GeopotentialHeight_IsbL-0750_LatLon0.15_PT099H.grib2 2026-04-15 16:25 686K
20260415T12Z_MSC_GDPS_GeopotentialHeight_IsbL-0800_LatLon0.15_PT099H.grib2 2026-04-15 16:25 634K
20260415T12Z_MSC_GDPS_GeopotentialHeight_IsbL-0850_LatLon0.15_PT099H.grib2 2026-04-15 16:25 646K
20260415T12Z_MSC_GDPS_GeopotentialHeight_IsbL-0875_LatLon0.15_PT099H.grib2 2026-04-15 16:25 649K
20260415T12Z_MSC_GDPS_GeopotentialHeight_IsbL-0900_LatLon0.15_PT099H.grib2 2026-04-15 16:25 658K
20260415T12Z_MSC_GDPS_GeopotentialHeight_IsbL-0925_LatLon0.15_PT099H.grib2 2026-04-15 16:25 666K
20260415T12Z_MSC_GDPS_GeopotentialHeight_IsbL-0950_LatLon0.15_PT099H.grib2 2026-04-15 16:25 737K
20260415T12Z_MSC_GDPS_GeopotentialHeight_IsbL-0970_LatLon0.15_PT099H.grib2 2026-04-15 16:25 748K
20260415T12Z_MSC_GDPS_GeopotentialHeight_IsbL-0985_LatLon0.15_PT099H.grib2 2026-04-15 16:25 765K
20260415T12Z_MSC_GDPS_GeopotentialHeight_IsbL-1000_LatLon0.15_PT099H.grib2 2026-04-15 16:25 788K
20260415T12Z_MSC_GDPS_GeopotentialHeight_IsbL-1015_LatLon0.15_PT099H.grib2 2026-04-15 16:25 813K
20260415T12Z_MSC_GDPS_Humidex_Sfc_LatLon0.15_PT099H.grib2 2026-04-15 16:25 5.3M
20260415T12Z_MSC_GDPS_IcePellets-Accum1h_Sfc_LatLon0.15_PT099H.grib2 2026-04-15 16:25 18K
20260415T12Z_MSC_GDPS_IcePellets-Accum3h_Sfc_LatLon0.15_PT099H.grib2 2026-04-15 16:25 23K
20260415T12Z_MSC_GDPS_IcePellets-Accum_Sfc_LatLon0.15_PT099H.grib2 2026-04-15 16:25 144K
20260415T12Z_MSC_GDPS_KIndex_Sfc_LatLon0.15_PT099H.grib2 2026-04-15 16:25 6.5M
20260415T12Z_MSC_GDPS_LatentHeatNetFlux_Sfc_LatLon0.15_PT099H.grib2 2026-04-15 16:25 523K
20260415T12Z_MSC_GDPS_LiftedIndex-MU-VT_IsbL-0500_LatLon0.15_PT099H.grib2 2026-04-15 16:25 5.4M
20260415T12Z_MSC_GDPS_NetLongwaveRadiationFlux-Accum_Sfc_LatLon0.15_PT099H.grib2 2026-04-15 16:25 962K
20260415T12Z_MSC_GDPS_NetShortwaveRadiationFlux-Accum_Sfc_LatLon0.15_PT099H.grib2 2026-04-15 16:25 956K
20260415T12Z_MSC_GDPS_O3MixingRatio_LatLon0.15_PT099H.grib2 2026-04-15 16:49 2.2M
20260415T12Z_MSC_GDPS_O3_EAtm_LatLon0.15_PT099H.grib2 2026-04-15 16:49 2.1M
20260415T12Z_MSC_GDPS_PlanetaryBoundaryLayerHeight_Sfc_LatLon0.15_PT099H.grib2 2026-04-15 16:25 2.5M
20260415T12Z_MSC_GDPS_Precip-Accum1h_Sfc_LatLon0.15_PT099H.grib2 2026-04-15 16:25 3.2M
20260415T12Z_MSC_GDPS_Precip-Accum3h_Sfc_LatLon0.15_PT099H.grib2 2026-04-15 16:25 3.5M
20260415T12Z_MSC_GDPS_Precip-Accum_Sfc_LatLon0.15_PT099H.grib2 2026-04-15 16:25 5.0M
20260415T12Z_MSC_GDPS_PrecipRate_Sfc_LatLon0.15_PT099H.grib2 2026-04-15 16:25 2.9M
20260415T12Z_MSC_GDPS_PrecipType-Instant_Sfc_LatLon0.15_PT099H.grib2 2026-04-15 16:25 1.6M
20260415T12Z_MSC_GDPS_Pressure_MSL_LatLon0.15_PT099H.grib2 2026-04-15 16:25 725K
20260415T12Z_MSC_GDPS_Pressure_PVU-1.5_LatLon0.15_PT099H.grib2 2026-04-15 16:25 5.8M
20260415T12Z_MSC_GDPS_Pressure_PVU-1_LatLon0.15_PT099H.grib2 2026-04-15 16:25 6.0M
20260415T12Z_MSC_GDPS_Pressure_PVU-2_LatLon0.15_PT099H.grib2 2026-04-15 16:25 5.6M
20260415T12Z_MSC_GDPS_Pressure_Sfc_LatLon0.15_PT099H.grib2 2026-04-15 16:25 1.1M
20260415T12Z_MSC_GDPS_RadiativeTemp_Sfc_LatLon0.15_PT099H.grib2 2026-04-15 16:25 674K
20260415T12Z_MSC_GDPS_Rain-Accum1h_Sfc_LatLon0.15_PT099H.grib2 2026-04-15 16:25 1.6M
20260415T12Z_MSC_GDPS_Rain-Accum3h_Sfc_LatLon0.15_PT099H.grib2 2026-04-15 16:25 1.7M
20260415T12Z_MSC_GDPS_Rain-Accum_Sfc_LatLon0.15_PT099H.grib2 2026-04-15 16:25 3.8M
20260415T12Z_MSC_GDPS_RelativeHumidity_AGL-2m_LatLon0.15_PT099H.grib2 2026-04-15 16:25 1.0M
20260415T12Z_MSC_GDPS_RelativeHumidity_IsbL-0010_LatLon0.15_PT099H.grib2 2026-04-15 16:25 253K
20260415T12Z_MSC_GDPS_RelativeHumidity_IsbL-0020_LatLon0.15_PT099H.grib2 2026-04-15 16:25 372K
20260415T12Z_MSC_GDPS_RelativeHumidity_IsbL-0030_LatLon0.15_PT099H.grib2 2026-04-15 16:25 375K
20260415T12Z_MSC_GDPS_RelativeHumidity_IsbL-0050_LatLon0.15_PT099H.grib2 2026-04-15 16:25 322K
20260415T12Z_MSC_GDPS_RelativeHumidity_IsbL-0100_LatLon0.15_PT099H.grib2 2026-04-15 16:25 336K
20260415T12Z_MSC_GDPS_RelativeHumidity_IsbL-0150_LatLon0.15_PT099H.grib2 2026-04-15 16:25 658K
20260415T12Z_MSC_GDPS_RelativeHumidity_IsbL-0175_LatLon0.15_PT099H.grib2 2026-04-15 16:25 801K
20260415T12Z_MSC_GDPS_RelativeHumidity_IsbL-0200_LatLon0.15_PT099H.grib2 2026-04-15 16:25 694K
20260415T12Z_MSC_GDPS_RelativeHumidity_IsbL-0225_LatLon0.15_PT099H.grib2 2026-04-15 16:25 778K
20260415T12Z_MSC_GDPS_RelativeHumidity_IsbL-0250_LatLon0.15_PT099H.grib2 2026-04-15 16:25 872K
20260415T12Z_MSC_GDPS_RelativeHumidity_IsbL-0275_LatLon0.15_PT099H.grib2 2026-04-15 16:25 897K
20260415T12Z_MSC_GDPS_RelativeHumidity_IsbL-0300_LatLon0.15_PT099H.grib2 2026-04-15 16:25 942K
20260415T12Z_MSC_GDPS_RelativeHumidity_IsbL-0350_LatLon0.15_PT099H.grib2 2026-04-15 16:25 958K
20260415T12Z_MSC_GDPS_RelativeHumidity_IsbL-0400_LatLon0.15_PT099H.grib2 2026-04-15 16:25 1.0M
20260415T12Z_MSC_GDPS_RelativeHumidity_IsbL-0450_LatLon0.15_PT099H.grib2 2026-04-15 16:25 1.0M
20260415T12Z_MSC_GDPS_RelativeHumidity_IsbL-0500_LatLon0.15_PT099H.grib2 2026-04-15 16:25 1.0M
20260415T12Z_MSC_GDPS_RelativeHumidity_IsbL-0550_LatLon0.15_PT099H.grib2 2026-04-15 16:25 1.0M
20260415T12Z_MSC_GDPS_RelativeHumidity_IsbL-0600_LatLon0.15_PT099H.grib2 2026-04-15 16:25 1.1M
20260415T12Z_MSC_GDPS_RelativeHumidity_IsbL-0650_LatLon0.15_PT099H.grib2 2026-04-15 16:25 1.1M
20260415T12Z_MSC_GDPS_RelativeHumidity_IsbL-0700_LatLon0.15_PT099H.grib2 2026-04-15 16:25 1.2M
20260415T12Z_MSC_GDPS_RelativeHumidity_IsbL-0750_LatLon0.15_PT099H.grib2 2026-04-15 16:25 1.2M
20260415T12Z_MSC_GDPS_RelativeHumidity_IsbL-0800_LatLon0.15_PT099H.grib2 2026-04-15 16:25 1.3M
20260415T12Z_MSC_GDPS_RelativeHumidity_IsbL-0850_LatLon0.15_PT099H.grib2 2026-04-15 16:25 1.3M
20260415T12Z_MSC_GDPS_RelativeHumidity_IsbL-0875_LatLon0.15_PT099H.grib2 2026-04-15 16:25 1.3M
20260415T12Z_MSC_GDPS_RelativeHumidity_IsbL-0900_LatLon0.15_PT099H.grib2 2026-04-15 16:25 1.2M
20260415T12Z_MSC_GDPS_RelativeHumidity_IsbL-0925_LatLon0.15_PT099H.grib2 2026-04-15 16:25 1.2M
20260415T12Z_MSC_GDPS_RelativeHumidity_IsbL-0950_LatLon0.15_PT099H.grib2 2026-04-15 16:25 1.2M
20260415T12Z_MSC_GDPS_RelativeHumidity_IsbL-0970_LatLon0.15_PT099H.grib2 2026-04-15 16:25 1.2M
20260415T12Z_MSC_GDPS_RelativeHumidity_IsbL-0985_LatLon0.15_PT099H.grib2 2026-04-15 16:25 1.1M
20260415T12Z_MSC_GDPS_RelativeHumidity_IsbL-1000_LatLon0.15_PT099H.grib2 2026-04-15 16:25 1.1M
20260415T12Z_MSC_GDPS_RelativeHumidity_IsbL-1015_LatLon0.15_PT099H.grib2 2026-04-15 16:25 1.0M
20260415T12Z_MSC_GDPS_RelativeVorticity_IsbL-0200_LatLon0.15_PT099H.grib2 2026-04-15 16:25 1.5M
20260415T12Z_MSC_GDPS_RelativeVorticity_IsbL-0250_LatLon0.15_PT099H.grib2 2026-04-15 16:25 1.3M
20260415T12Z_MSC_GDPS_RelativeVorticity_IsbL-0500_LatLon0.15_PT099H.grib2 2026-04-15 16:25 1.4M
20260415T12Z_MSC_GDPS_RelativeVorticity_IsbL-0700_LatLon0.15_PT099H.grib2 2026-04-15 16:25 1.3M
20260415T12Z_MSC_GDPS_RelativeVorticity_IsbL-0850_LatLon0.15_PT099H.grib2 2026-04-15 16:25 1.6M
20260415T12Z_MSC_GDPS_Runoff-Accum_Sfc_LatLon0.15_PT099H.grib2 2026-04-15 16:25 145K
20260415T12Z_MSC_GDPS_SensibleHeatNetFlux_Sfc_LatLon0.15_PT099H.grib2 2026-04-15 16:25 633K
20260415T12Z_MSC_GDPS_ShowalterIndex_IsbL-0500_LatLon0.15_PT099H.grib2 2026-04-15 16:25 6.2M
20260415T12Z_MSC_GDPS_Snow-Accum1h_Sfc_LatLon0.15_PT099H.grib2 2026-04-15 16:25 1.1M
20260415T12Z_MSC_GDPS_Snow-Accum3h_Sfc_LatLon0.15_PT099H.grib2 2026-04-15 16:25 1.1M
20260415T12Z_MSC_GDPS_Snow-Accum_Sfc_LatLon0.15_PT099H.grib2 2026-04-15 16:25 2.0M
20260415T12Z_MSC_GDPS_SnowDensity_Sfc_LatLon0.15_PT099H.grib2 2026-04-15 16:25 270K
20260415T12Z_MSC_GDPS_SnowDepth_Sfc_LatLon0.15_PT099H.grib2 2026-04-15 16:25 1.8M
20260415T12Z_MSC_GDPS_SoilTemp_DBS-0to10cm_LatLon0.15_PT099H.grib2 2026-04-15 16:25 507K
20260415T12Z_MSC_GDPS_SoilTemp_Sfc_LatLon0.15_PT099H.grib2 2026-04-15 16:25 576K
20260415T12Z_MSC_GDPS_SoilVolumetricIceContent_Sfc_LatLon0.15_PT099H.grib2 2026-04-15 16:25 223K
20260415T12Z_MSC_GDPS_SoilVolumetricWaterContent_DBS-0to10cm_LatLon0.15_PT099H.grib2 2026-04-15 16:25 554K
20260415T12Z_MSC_GDPS_SoilVolumetricWaterContent_DBS-0to1cm_LatLon0.15_PT099H.grib2 2026-04-15 16:25 651K
20260415T12Z_MSC_GDPS_SpecificHumidity_AGL-120m_LatLon0.15_PT099H.grib2 2026-04-15 16:25 1.1M
20260415T12Z_MSC_GDPS_SpecificHumidity_AGL-2m_LatLon0.15_PT099H.grib2 2026-04-15 16:25 1.2M
20260415T12Z_MSC_GDPS_SpecificHumidity_AGL-40m_LatLon0.15_PT099H.grib2 2026-04-15 16:25 1.1M
20260415T12Z_MSC_GDPS_SpecificHumidity_AGL-80m_LatLon0.15_PT099H.grib2 2026-04-15 16:25 1.1M
20260415T12Z_MSC_GDPS_SpecificHumidity_IsbL-0001_LatLon0.15_PT099H.grib2 2026-04-15 16:25 1.2M
20260415T12Z_MSC_GDPS_SpecificHumidity_IsbL-0005_LatLon0.15_PT099H.grib2 2026-04-15 16:25 1.1M
20260415T12Z_MSC_GDPS_SpecificHumidity_IsbL-0010_LatLon0.15_PT099H.grib2 2026-04-15 16:25 1.3M
20260415T12Z_MSC_GDPS_SpecificHumidity_IsbL-0020_LatLon0.15_PT099H.grib2 2026-04-15 16:25 1.6M
20260415T12Z_MSC_GDPS_SpecificHumidity_IsbL-0030_LatLon0.15_PT099H.grib2 2026-04-15 16:25 1.6M
20260415T12Z_MSC_GDPS_SpecificHumidity_IsbL-0050_LatLon0.15_PT099H.grib2 2026-04-15 16:25 1.3M
20260415T12Z_MSC_GDPS_SpecificHumidity_IsbL-0100_LatLon0.15_PT099H.grib2 2026-04-15 16:25 1.3M
20260415T12Z_MSC_GDPS_SpecificHumidity_IsbL-0150_LatLon0.15_PT099H.grib2 2026-04-15 16:25 1.3M
20260415T12Z_MSC_GDPS_SpecificHumidity_IsbL-0175_LatLon0.15_PT099H.grib2 2026-04-15 16:25 1.3M
20260415T12Z_MSC_GDPS_SpecificHumidity_IsbL-0200_LatLon0.15_PT099H.grib2 2026-04-15 16:25 1.3M
20260415T12Z_MSC_GDPS_SpecificHumidity_IsbL-0225_LatLon0.15_PT099H.grib2 2026-04-15 16:25 1.3M
20260415T12Z_MSC_GDPS_SpecificHumidity_IsbL-0250_LatLon0.15_PT099H.grib2 2026-04-15 16:25 1.4M
20260415T12Z_MSC_GDPS_SpecificHumidity_IsbL-0275_LatLon0.15_PT099H.grib2 2026-04-15 16:25 1.3M
20260415T12Z_MSC_GDPS_SpecificHumidity_IsbL-0300_LatLon0.15_PT099H.grib2 2026-04-15 16:25 1.2M
20260415T12Z_MSC_GDPS_SpecificHumidity_IsbL-0350_LatLon0.15_PT099H.grib2 2026-04-15 16:25 1.2M
20260415T12Z_MSC_GDPS_SpecificHumidity_IsbL-0400_LatLon0.15_PT099H.grib2 2026-04-15 16:25 1.5M
20260415T12Z_MSC_GDPS_SpecificHumidity_IsbL-0450_LatLon0.15_PT099H.grib2 2026-04-15 16:25 1.6M
20260415T12Z_MSC_GDPS_SpecificHumidity_IsbL-0500_LatLon0.15_PT099H.grib2 2026-04-15 16:25 1.4M
20260415T12Z_MSC_GDPS_SpecificHumidity_IsbL-0550_LatLon0.15_PT099H.grib2 2026-04-15 16:25 1.6M
20260415T12Z_MSC_GDPS_SpecificHumidity_IsbL-0600_LatLon0.15_PT099H.grib2 2026-04-15 16:25 1.7M
20260415T12Z_MSC_GDPS_SpecificHumidity_IsbL-0650_LatLon0.15_PT099H.grib2 2026-04-15 16:25 1.5M
20260415T12Z_MSC_GDPS_SpecificHumidity_IsbL-0700_LatLon0.15_PT099H.grib2 2026-04-15 16:25 1.6M
20260415T12Z_MSC_GDPS_SpecificHumidity_IsbL-0750_LatLon0.15_PT099H.grib2 2026-04-15 16:25 1.7M
20260415T12Z_MSC_GDPS_SpecificHumidity_IsbL-0800_LatLon0.15_PT099H.grib2 2026-04-15 16:25 1.9M
20260415T12Z_MSC_GDPS_SpecificHumidity_IsbL-0850_LatLon0.15_PT099H.grib2 2026-04-15 16:25 1.9M
20260415T12Z_MSC_GDPS_SpecificHumidity_IsbL-0875_LatLon0.15_PT099H.grib2 2026-04-15 16:25 1.6M
20260415T12Z_MSC_GDPS_SpecificHumidity_IsbL-0900_LatLon0.15_PT099H.grib2 2026-04-15 16:25 1.6M
20260415T12Z_MSC_GDPS_SpecificHumidity_IsbL-0925_LatLon0.15_PT099H.grib2 2026-04-15 16:25 1.6M
20260415T12Z_MSC_GDPS_SpecificHumidity_IsbL-0950_LatLon0.15_PT099H.grib2 2026-04-15 16:25 1.5M
20260415T12Z_MSC_GDPS_SpecificHumidity_IsbL-0970_LatLon0.15_PT099H.grib2 2026-04-15 16:25 1.5M
20260415T12Z_MSC_GDPS_SpecificHumidity_IsbL-0985_LatLon0.15_PT099H.grib2 2026-04-15 16:25 1.5M
20260415T12Z_MSC_GDPS_SpecificHumidity_IsbL-1000_LatLon0.15_PT099H.grib2 2026-04-15 16:25 1.5M
20260415T12Z_MSC_GDPS_SpecificHumidity_IsbL-1015_LatLon0.15_PT099H.grib2 2026-04-15 16:25 1.4M
20260415T12Z_MSC_GDPS_SpecificHumidity_Sfc_LatLon0.15_PT099H.grib2 2026-04-15 16:25 667K
20260415T12Z_MSC_GDPS_Thickness_IsbL-0850to0700_LatLon0.15_PT099H.grib2 2026-04-15 16:25 471K
20260415T12Z_MSC_GDPS_Thickness_IsbL-1000to0500_LatLon0.15_PT099H.grib2 2026-04-15 16:25 377K
20260415T12Z_MSC_GDPS_Thickness_IsbL-1000to0850_LatLon0.15_PT099H.grib2 2026-04-15 16:25 493K
20260415T12Z_MSC_GDPS_TotalCloudCover_Sfc_LatLon0.15_PT099H.grib2 2026-04-15 16:25 816K
20260415T12Z_MSC_GDPS_TotalTotalsIndex_Sfc_LatLon0.15_PT099H.grib2 2026-04-15 16:25 6.2M
20260415T12Z_MSC_GDPS_UVIndex-ClearSky_Sfc_LatLon0.15_PT099H.grib2 2026-04-15 16:49 1.0M
20260415T12Z_MSC_GDPS_UVIndex_Sfc_LatLon0.15_PT099H.grib2 2026-04-15 16:49 1.5M
20260415T12Z_MSC_GDPS_UpwardLongwaveRadiationFlux_NTAtm_LatLon0.15_PT099H.grib2 2026-04-15 16:25 839K
20260415T12Z_MSC_GDPS_VerticalVelocity_IsbL-0200_LatLon0.15_PT099H.grib2 2026-04-15 16:25 935K
20260415T12Z_MSC_GDPS_VerticalVelocity_IsbL-0250_LatLon0.15_PT099H.grib2 2026-04-15 16:25 1.1M
20260415T12Z_MSC_GDPS_VerticalVelocity_IsbL-0500_LatLon0.15_PT099H.grib2 2026-04-15 16:25 1.0M
20260415T12Z_MSC_GDPS_VerticalVelocity_IsbL-0600_LatLon0.15_PT099H.grib2 2026-04-15 16:25 1.3M
20260415T12Z_MSC_GDPS_VerticalVelocity_IsbL-0700_LatLon0.15_PT099H.grib2 2026-04-15 16:25 1.1M
20260415T12Z_MSC_GDPS_VerticalVelocity_IsbL-0850_LatLon0.15_PT099H.grib2 2026-04-15 16:25 1.3M
20260415T12Z_MSC_GDPS_WindChill_Sfc_LatLon0.15_PT099H.grib2 2026-04-15 16:25 5.3M
20260415T12Z_MSC_GDPS_WindDir_AGL-10m_LatLon0.15_PT099H.grib2 2026-04-15 16:25 1.4M
20260415T12Z_MSC_GDPS_WindDir_AGL-120m_LatLon0.15_PT099H.grib2 2026-04-15 16:25 1.4M
20260415T12Z_MSC_GDPS_WindDir_AGL-40m_LatLon0.15_PT099H.grib2 2026-04-15 16:25 1.4M
20260415T12Z_MSC_GDPS_WindDir_AGL-80m_LatLon0.15_PT099H.grib2 2026-04-15 16:25 1.4M
20260415T12Z_MSC_GDPS_WindDir_IsbL-0001_LatLon0.15_PT099H.grib2 2026-04-15 16:25 628K
20260415T12Z_MSC_GDPS_WindDir_IsbL-0005_LatLon0.15_PT099H.grib2 2026-04-15 16:25 786K
20260415T12Z_MSC_GDPS_WindDir_IsbL-0010_LatLon0.15_PT099H.grib2 2026-04-15 16:25 854K
20260415T12Z_MSC_GDPS_WindDir_IsbL-0020_LatLon0.15_PT099H.grib2 2026-04-15 16:25 928K
20260415T12Z_MSC_GDPS_WindDir_IsbL-0030_LatLon0.15_PT099H.grib2 2026-04-15 16:25 890K
20260415T12Z_MSC_GDPS_WindDir_IsbL-0050_LatLon0.15_PT099H.grib2 2026-04-15 16:25 950K
20260415T12Z_MSC_GDPS_WindDir_IsbL-0100_LatLon0.15_PT099H.grib2 2026-04-15 16:25 1.0M
20260415T12Z_MSC_GDPS_WindDir_IsbL-0150_LatLon0.15_PT099H.grib2 2026-04-15 16:25 1.0M
20260415T12Z_MSC_GDPS_WindDir_IsbL-0175_LatLon0.15_PT099H.grib2 2026-04-15 16:25 1.1M
20260415T12Z_MSC_GDPS_WindDir_IsbL-0200_LatLon0.15_PT099H.grib2 2026-04-15 16:25 1.1M
20260415T12Z_MSC_GDPS_WindDir_IsbL-0225_LatLon0.15_PT099H.grib2 2026-04-15 16:25 1.1M
20260415T12Z_MSC_GDPS_WindDir_IsbL-0250_LatLon0.15_PT099H.grib2 2026-04-15 16:25 1.1M
20260415T12Z_MSC_GDPS_WindDir_IsbL-0275_LatLon0.15_PT099H.grib2 2026-04-15 16:25 1.2M
20260415T12Z_MSC_GDPS_WindDir_IsbL-0300_LatLon0.15_PT099H.grib2 2026-04-15 16:25 1.2M
20260415T12Z_MSC_GDPS_WindDir_IsbL-0350_LatLon0.15_PT099H.grib2 2026-04-15 16:25 1.2M
20260415T12Z_MSC_GDPS_WindDir_IsbL-0400_LatLon0.15_PT099H.grib2 2026-04-15 16:25 1.3M
20260415T12Z_MSC_GDPS_WindDir_IsbL-0450_LatLon0.15_PT099H.grib2 2026-04-15 16:25 1.3M
20260415T12Z_MSC_GDPS_WindDir_IsbL-0500_LatLon0.15_PT099H.grib2 2026-04-15 16:25 1.3M
20260415T12Z_MSC_GDPS_WindDir_IsbL-0550_LatLon0.15_PT099H.grib2 2026-04-15 16:25 1.4M
20260415T12Z_MSC_GDPS_WindDir_IsbL-0600_LatLon0.15_PT099H.grib2 2026-04-15 16:25 1.5M
20260415T12Z_MSC_GDPS_WindDir_IsbL-0650_LatLon0.15_PT099H.grib2 2026-04-15 16:25 1.5M
20260415T12Z_MSC_GDPS_WindDir_IsbL-0700_LatLon0.15_PT099H.grib2 2026-04-15 16:25 1.6M
20260415T12Z_MSC_GDPS_WindDir_IsbL-0750_LatLon0.15_PT099H.grib2 2026-04-15 16:25 1.7M
20260415T12Z_MSC_GDPS_WindDir_IsbL-0800_LatLon0.15_PT099H.grib2 2026-04-15 16:25 1.8M
20260415T12Z_MSC_GDPS_WindDir_IsbL-0850_LatLon0.15_PT099H.grib2 2026-04-15 16:25 2.0M
20260415T12Z_MSC_GDPS_WindDir_IsbL-0875_LatLon0.15_PT099H.grib2 2026-04-15 16:25 2.0M
20260415T12Z_MSC_GDPS_WindDir_IsbL-0900_LatLon0.15_PT099H.grib2 2026-04-15 16:25 2.0M
20260415T12Z_MSC_GDPS_WindDir_IsbL-0925_LatLon0.15_PT099H.grib2 2026-04-15 16:25 2.0M
20260415T12Z_MSC_GDPS_WindDir_IsbL-0950_LatLon0.15_PT099H.grib2 2026-04-15 16:25 2.0M
20260415T12Z_MSC_GDPS_WindDir_IsbL-0970_LatLon0.15_PT099H.grib2 2026-04-15 16:25 2.0M
20260415T12Z_MSC_GDPS_WindDir_IsbL-0985_LatLon0.15_PT099H.grib2 2026-04-15 16:25 2.0M
20260415T12Z_MSC_GDPS_WindDir_IsbL-1000_LatLon0.15_PT099H.grib2 2026-04-15 16:25 2.1M
20260415T12Z_MSC_GDPS_WindDir_IsbL-1015_LatLon0.15_PT099H.grib2 2026-04-15 16:25 2.1M
20260415T12Z_MSC_GDPS_WindGust-Max_AGL-10m_LatLon0.15_PT099H.grib2 2026-04-15 16:25 2.3M
20260415T12Z_MSC_GDPS_WindGust-Min_AGL-10m_LatLon0.15_PT099H.grib2 2026-04-15 16:25 2.2M
20260415T12Z_MSC_GDPS_WindGust_AGL-10m_LatLon0.15_PT099H.grib2 2026-04-15 16:25 2.2M
20260415T12Z_MSC_GDPS_WindSpeed_AGL-10m_LatLon0.15_PT099H.grib2 2026-04-15 16:25 1.1M
20260415T12Z_MSC_GDPS_WindSpeed_AGL-120m_LatLon0.15_PT099H.grib2 2026-04-15 16:25 1.2M
20260415T12Z_MSC_GDPS_WindSpeed_AGL-40m_LatLon0.15_PT099H.grib2 2026-04-15 16:25 1.2M
20260415T12Z_MSC_GDPS_WindSpeed_AGL-80m_LatLon0.15_PT099H.grib2 2026-04-15 16:25 1.2M
20260415T12Z_MSC_GDPS_WindSpeed_IsbL-0001_LatLon0.15_PT099H.grib2 2026-04-15 16:25 636K
20260415T12Z_MSC_GDPS_WindSpeed_IsbL-0005_LatLon0.15_PT099H.grib2 2026-04-15 16:25 688K
20260415T12Z_MSC_GDPS_WindSpeed_IsbL-0010_LatLon0.15_PT099H.grib2 2026-04-15 16:25 622K
20260415T12Z_MSC_GDPS_WindSpeed_IsbL-0020_LatLon0.15_PT099H.grib2 2026-04-15 16:25 665K
20260415T12Z_MSC_GDPS_WindSpeed_IsbL-0030_LatLon0.15_PT099H.grib2 2026-04-15 16:25 853K
20260415T12Z_MSC_GDPS_WindSpeed_IsbL-0050_LatLon0.15_PT099H.grib2 2026-04-15 16:25 912K
20260415T12Z_MSC_GDPS_WindSpeed_IsbL-0100_LatLon0.15_PT099H.grib2 2026-04-15 16:25 1.1M
20260415T12Z_MSC_GDPS_WindSpeed_IsbL-0150_LatLon0.15_PT099H.grib2 2026-04-15 16:25 1.0M
20260415T12Z_MSC_GDPS_WindSpeed_IsbL-0175_LatLon0.15_PT099H.grib2 2026-04-15 16:25 1.0M
20260415T12Z_MSC_GDPS_WindSpeed_IsbL-0200_LatLon0.15_PT099H.grib2 2026-04-15 16:25 1.1M
20260415T12Z_MSC_GDPS_WindSpeed_IsbL-0225_LatLon0.15_PT099H.grib2 2026-04-15 16:25 1.1M
20260415T12Z_MSC_GDPS_WindSpeed_IsbL-0250_LatLon0.15_PT099H.grib2 2026-04-15 16:25 1.1M
20260415T12Z_MSC_GDPS_WindSpeed_IsbL-0275_LatLon0.15_PT099H.grib2 2026-04-15 16:25 1.1M
20260415T12Z_MSC_GDPS_WindSpeed_IsbL-0300_LatLon0.15_PT099H.grib2 2026-04-15 16:25 1.1M
20260415T12Z_MSC_GDPS_WindSpeed_IsbL-0350_LatLon0.15_PT099H.grib2 2026-04-15 16:25 1.1M
20260415T12Z_MSC_GDPS_WindSpeed_IsbL-0400_LatLon0.15_PT099H.grib2 2026-04-15 16:25 1.1M
20260415T12Z_MSC_GDPS_WindSpeed_IsbL-0450_LatLon0.15_PT099H.grib2 2026-04-15 16:25 1.1M
20260415T12Z_MSC_GDPS_WindSpeed_IsbL-0500_LatLon0.15_PT099H.grib2 2026-04-15 16:25 1.1M
20260415T12Z_MSC_GDPS_WindSpeed_IsbL-0550_LatLon0.15_PT099H.grib2 2026-04-15 16:25 1.1M
20260415T12Z_MSC_GDPS_WindSpeed_IsbL-0600_LatLon0.15_PT099H.grib2 2026-04-15 16:25 1.1M
20260415T12Z_MSC_GDPS_WindSpeed_IsbL-0650_LatLon0.15_PT099H.grib2 2026-04-15 16:25 1.2M
20260415T12Z_MSC_GDPS_WindSpeed_IsbL-0700_LatLon0.15_PT099H.grib2 2026-04-15 16:25 1.5M
20260415T12Z_MSC_GDPS_WindSpeed_IsbL-0750_LatLon0.15_PT099H.grib2 2026-04-15 16:25 1.5M
20260415T12Z_MSC_GDPS_WindSpeed_IsbL-0800_LatLon0.15_PT099H.grib2 2026-04-15 16:25 1.7M
20260415T12Z_MSC_GDPS_WindSpeed_IsbL-0850_LatLon0.15_PT099H.grib2 2026-04-15 16:25 1.8M
20260415T12Z_MSC_GDPS_WindSpeed_IsbL-0875_LatLon0.15_PT099H.grib2 2026-04-15 16:25 1.9M
20260415T12Z_MSC_GDPS_WindSpeed_IsbL-0900_LatLon0.15_PT099H.grib2 2026-04-15 16:25 1.9M
20260415T12Z_MSC_GDPS_WindSpeed_IsbL-0925_LatLon0.15_PT099H.grib2 2026-04-15 16:25 1.9M
20260415T12Z_MSC_GDPS_WindSpeed_IsbL-0950_LatLon0.15_PT099H.grib2 2026-04-15 16:25 1.9M
20260415T12Z_MSC_GDPS_WindSpeed_IsbL-0970_LatLon0.15_PT099H.grib2 2026-04-15 16:25 1.9M
20260415T12Z_MSC_GDPS_WindSpeed_IsbL-0985_LatLon0.15_PT099H.grib2 2026-04-15 16:25 1.8M
20260415T12Z_MSC_GDPS_WindSpeed_IsbL-1000_LatLon0.15_PT099H.grib2 2026-04-15 16:25 1.8M
20260415T12Z_MSC_GDPS_WindSpeed_IsbL-1015_LatLon0.15_PT099H.grib2 2026-04-15 16:25 1.8M
20260415T12Z_MSC_GDPS_WindU_AGL-10m_LatLon0.15_PT099H.grib2 2026-04-15 16:25 1.3M
20260415T12Z_MSC_GDPS_WindU_AGL-120m_LatLon0.15_PT099H.grib2 2026-04-15 16:25 965K
20260415T12Z_MSC_GDPS_WindU_AGL-40m_LatLon0.15_PT099H.grib2 2026-04-15 16:25 962K
20260415T12Z_MSC_GDPS_WindU_AGL-80m_LatLon0.15_PT099H.grib2 2026-04-15 16:25 966K
20260415T12Z_MSC_GDPS_WindU_IsbL-0001_LatLon0.15_PT099H.grib2 2026-04-15 16:25 637K
20260415T12Z_MSC_GDPS_WindU_IsbL-0005_LatLon0.15_PT099H.grib2 2026-04-15 16:25 689K
20260415T12Z_MSC_GDPS_WindU_IsbL-0010_LatLon0.15_PT099H.grib2 2026-04-15 16:25 701K
20260415T12Z_MSC_GDPS_WindU_IsbL-0020_LatLon0.15_PT099H.grib2 2026-04-15 16:25 733K
20260415T12Z_MSC_GDPS_WindU_IsbL-0030_LatLon0.15_PT099H.grib2 2026-04-15 16:25 734K
20260415T12Z_MSC_GDPS_WindU_IsbL-0050_LatLon0.15_PT099H.grib2 2026-04-15 16:25 703K
20260415T12Z_MSC_GDPS_WindU_IsbL-0100_LatLon0.15_PT099H.grib2 2026-04-15 16:25 924K
20260415T12Z_MSC_GDPS_WindU_IsbL-0150_LatLon0.15_PT099H.grib2 2026-04-15 16:25 1.0M
20260415T12Z_MSC_GDPS_WindU_IsbL-0175_LatLon0.15_PT099H.grib2 2026-04-15 16:25 1.0M
20260415T12Z_MSC_GDPS_WindU_IsbL-0200_LatLon0.15_PT099H.grib2 2026-04-15 16:25 847K
20260415T12Z_MSC_GDPS_WindU_IsbL-0225_LatLon0.15_PT099H.grib2 2026-04-15 16:25 857K
20260415T12Z_MSC_GDPS_WindU_IsbL-0250_LatLon0.15_PT099H.grib2 2026-04-15 16:25 856K
20260415T12Z_MSC_GDPS_WindU_IsbL-0275_LatLon0.15_PT099H.grib2 2026-04-15 16:25 882K
20260415T12Z_MSC_GDPS_WindU_IsbL-0300_LatLon0.15_PT099H.grib2 2026-04-15 16:25 872K
20260415T12Z_MSC_GDPS_WindU_IsbL-0350_LatLon0.15_PT099H.grib2 2026-04-15 16:25 887K
20260415T12Z_MSC_GDPS_WindU_IsbL-0400_LatLon0.15_PT099H.grib2 2026-04-15 16:25 1.1M
20260415T12Z_MSC_GDPS_WindU_IsbL-0450_LatLon0.15_PT099H.grib2 2026-04-15 16:25 1.1M
20260415T12Z_MSC_GDPS_WindU_IsbL-0500_LatLon0.15_PT099H.grib2 2026-04-15 16:25 1.1M
20260415T12Z_MSC_GDPS_WindU_IsbL-0550_LatLon0.15_PT099H.grib2 2026-04-15 16:25 1.1M
20260415T12Z_MSC_GDPS_WindU_IsbL-0600_LatLon0.15_PT099H.grib2 2026-04-15 16:25 1.1M
20260415T12Z_MSC_GDPS_WindU_IsbL-0650_LatLon0.15_PT099H.grib2 2026-04-15 16:25 1.2M
20260415T12Z_MSC_GDPS_WindU_IsbL-0700_LatLon0.15_PT099H.grib2 2026-04-15 16:25 1.2M
20260415T12Z_MSC_GDPS_WindU_IsbL-0750_LatLon0.15_PT099H.grib2 2026-04-15 16:25 1.3M
20260415T12Z_MSC_GDPS_WindU_IsbL-0800_LatLon0.15_PT099H.grib2 2026-04-15 16:25 1.3M
20260415T12Z_MSC_GDPS_WindU_IsbL-0850_LatLon0.15_PT099H.grib2 2026-04-15 16:25 1.4M
20260415T12Z_MSC_GDPS_WindU_IsbL-0875_LatLon0.15_PT099H.grib2 2026-04-15 16:25 1.4M
20260415T12Z_MSC_GDPS_WindU_IsbL-0900_LatLon0.15_PT099H.grib2 2026-04-15 16:25 1.4M
20260415T12Z_MSC_GDPS_WindU_IsbL-0925_LatLon0.15_PT099H.grib2 2026-04-15 16:25 1.4M
20260415T12Z_MSC_GDPS_WindU_IsbL-0950_LatLon0.15_PT099H.grib2 2026-04-15 16:25 1.4M
20260415T12Z_MSC_GDPS_WindU_IsbL-0970_LatLon0.15_PT099H.grib2 2026-04-15 16:25 1.4M
20260415T12Z_MSC_GDPS_WindU_IsbL-0985_LatLon0.15_PT099H.grib2 2026-04-15 16:25 1.4M
20260415T12Z_MSC_GDPS_WindU_IsbL-1000_LatLon0.15_PT099H.grib2 2026-04-15 16:25 1.4M
20260415T12Z_MSC_GDPS_WindU_IsbL-1015_LatLon0.15_PT099H.grib2 2026-04-15 16:25 1.3M
20260415T12Z_MSC_GDPS_WindV_AGL-10m_LatLon0.15_PT099H.grib2 2026-04-15 16:25 1.6M
20260415T12Z_MSC_GDPS_WindV_AGL-120m_LatLon0.15_PT099H.grib2 2026-04-15 16:25 973K
20260415T12Z_MSC_GDPS_WindV_AGL-40m_LatLon0.15_PT099H.grib2 2026-04-15 16:25 969K
20260415T12Z_MSC_GDPS_WindV_AGL-80m_LatLon0.15_PT099H.grib2 2026-04-15 16:25 1.0M
20260415T12Z_MSC_GDPS_WindV_IsbL-0001_LatLon0.15_PT099H.grib2 2026-04-15 16:25 760K
20260415T12Z_MSC_GDPS_WindV_IsbL-0005_LatLon0.15_PT099H.grib2 2026-04-15 16:25 776K
20260415T12Z_MSC_GDPS_WindV_IsbL-0010_LatLon0.15_PT099H.grib2 2026-04-15 16:25 801K
20260415T12Z_MSC_GDPS_WindV_IsbL-0020_LatLon0.15_PT099H.grib2 2026-04-15 16:25 850K
20260415T12Z_MSC_GDPS_WindV_IsbL-0030_LatLon0.15_PT099H.grib2 2026-04-15 16:25 849K
20260415T12Z_MSC_GDPS_WindV_IsbL-0050_LatLon0.15_PT099H.grib2 2026-04-15 16:25 903K
20260415T12Z_MSC_GDPS_WindV_IsbL-0100_LatLon0.15_PT099H.grib2 2026-04-15 16:25 850K
20260415T12Z_MSC_GDPS_WindV_IsbL-0150_LatLon0.15_PT099H.grib2 2026-04-15 16:25 1.0M
20260415T12Z_MSC_GDPS_WindV_IsbL-0175_LatLon0.15_PT099H.grib2 2026-04-15 16:25 1.0M
20260415T12Z_MSC_GDPS_WindV_IsbL-0200_LatLon0.15_PT099H.grib2 2026-04-15 16:25 842K
20260415T12Z_MSC_GDPS_WindV_IsbL-0225_LatLon0.15_PT099H.grib2 2026-04-15 16:25 910K
20260415T12Z_MSC_GDPS_WindV_IsbL-0250_LatLon0.15_PT099H.grib2 2026-04-15 16:25 908K
20260415T12Z_MSC_GDPS_WindV_IsbL-0275_LatLon0.15_PT099H.grib2 2026-04-15 16:25 934K
20260415T12Z_MSC_GDPS_WindV_IsbL-0300_LatLon0.15_PT099H.grib2 2026-04-15 16:25 926K
20260415T12Z_MSC_GDPS_WindV_IsbL-0350_LatLon0.15_PT099H.grib2 2026-04-15 16:25 938K
20260415T12Z_MSC_GDPS_WindV_IsbL-0400_LatLon0.15_PT099H.grib2 2026-04-15 16:25 938K
20260415T12Z_MSC_GDPS_WindV_IsbL-0450_LatLon0.15_PT099H.grib2 2026-04-15 16:25 879K
20260415T12Z_MSC_GDPS_WindV_IsbL-0500_LatLon0.15_PT099H.grib2 2026-04-15 16:25 882K
20260415T12Z_MSC_GDPS_WindV_IsbL-0550_LatLon0.15_PT099H.grib2 2026-04-15 16:25 1.1M
20260415T12Z_MSC_GDPS_WindV_IsbL-0600_LatLon0.15_PT099H.grib2 2026-04-15 16:25 1.1M
20260415T12Z_MSC_GDPS_WindV_IsbL-0650_LatLon0.15_PT099H.grib2 2026-04-15 16:25 1.2M
20260415T12Z_MSC_GDPS_WindV_IsbL-0700_LatLon0.15_PT099H.grib2 2026-04-15 16:25 1.2M
20260415T12Z_MSC_GDPS_WindV_IsbL-0750_LatLon0.15_PT099H.grib2 2026-04-15 16:25 1.2M
20260415T12Z_MSC_GDPS_WindV_IsbL-0800_LatLon0.15_PT099H.grib2 2026-04-15 16:25 1.3M
20260415T12Z_MSC_GDPS_WindV_IsbL-0850_LatLon0.15_PT099H.grib2 2026-04-15 16:25 1.4M
20260415T12Z_MSC_GDPS_WindV_IsbL-0875_LatLon0.15_PT099H.grib2 2026-04-15 16:25 1.4M
20260415T12Z_MSC_GDPS_WindV_IsbL-0900_LatLon0.15_PT099H.grib2 2026-04-15 16:25 1.4M
20260415T12Z_MSC_GDPS_WindV_IsbL-0925_LatLon0.15_PT099H.grib2 2026-04-15 16:25 1.4M
20260415T12Z_MSC_GDPS_WindV_IsbL-0950_LatLon0.15_PT099H.grib2 2026-04-15 16:25 1.4M
20260415T12Z_MSC_GDPS_WindV_IsbL-0970_LatLon0.15_PT099H.grib2 2026-04-15 16:25 1.4M
20260415T12Z_MSC_GDPS_WindV_IsbL-0985_LatLon0.15_PT099H.grib2 2026-04-15 16:25 1.4M
20260415T12Z_MSC_GDPS_WindV_IsbL-1000_LatLon0.15_PT099H.grib2 2026-04-15 16:25 1.7M
20260415T12Z_MSC_GDPS_WindV_IsbL-1015_LatLon0.15_PT099H.grib2 2026-04-15 16:25 1.6M